COSMOS 2443 (GLONASS)

Satellite information

Favourite Embed

Satellite Type and Status

PAYLOADIN ORBIT

Key statistics

Satellite COSMOS 2443 (GLONASS) at a glance.

Uptime

6072

Days in orbit

Revolutions

≈ 2.1

Per day

Orbit

MEO

Medium Earth Orbit

Inclination

65.7

Latest

Satellite identification and parameters

Extended collection of information and parameters for COSMOS 2443 (GLONASS).

Object identification

Identified? True

Debris? False

Object name: COSMOS 2443 (GLONASS)

International designator: 2008-046B

Object number (NORAD): 33379

Object ID (CCSDS): 33379

Country: COMMONWEALTH OF INDEPENDENT STATES (CIS)

Current information (Y/N): Y

RCS size: LARGE

Orbital parameters

Period: 675.744 minutes

Inclination: 65.6963 deg

SMA: 25508.3 km

Apoapsis: 19163.196 km

Periapsis: 19097.135 km

RAAN: 328.5493 deg

Eccentricy: 0.0012949

Argument of periapsis: 173.234 deg

Mean anomaly: 179.0987 deg

Mean motion: 2.13098541 rev/day

Mean motion (dot): -0.00000046 rev/day2

B* drag term: 0.0 1/REarth

Two-line elements (TLE)

Creation date: May 10, 2025, 5:27 p.m.

Reference frame: TEME

Reference center: EARTH

Epoch: May 10, 2025, 11:29 a.m. UTC

TLE line 0: 0 COSMOS 2443 (GLONASS)

TLE line 1: 1 33379U 08046B 25130.47886492 -.00000046 00000-0 00000-0 0 9993

TLE line 2: 2 33379 65.6963 328.5493 0012949 173.2340 179.0987 2.13098541129366

Live tracking on map

Real-time ground track for satellite COSMOS 2443 (GLONASS).

In-orbit conjunctions

There are no conjunctions computed for COSMOS 2443 (GLONASS), at the moment. Check back to stay up to date, as we update our databases every day.

Go to all conjunctions

Associated space launch

GLONASS navigation satellites

COSMOS 2443 (GLONASS) was lifted into orbit during the mission ‘Proton-M | Uragan-M 15 to 17’, on board a Proton-M space rocket.

The launch took place on Sept. 25, 2008, 8:49 a.m. from 81/23 (81L).

For more information about the launch, click the button.

Launch to space Proton-M | Uragan-M 15 to 17
Proton-M | Uragan-M 15 to 17

Agency: N/A

Status: Launch Successful

Launch date: Sept. 25, 2008, 8:49 a.m. UTC

Rocket: Proton-M

Launch pad: 81/23 (81L)

Location: Baikonur Cosmodrome, Republic of Kazakhstan

...

Latest news about this satellite

There are no fresh news available about this satellite. Check back as we update our databases every day.


Newsletter sign-up

Weekly statistics, charts and insights to help you stay on top of the space industry.